Regional Weather Roundup
Issued by NWS Charleston, SC

Current Version | Previous Version | Graphics & Text | Print | Product List | Glossary On
Versions: 1 2 3 4 5 6 7 8 9 10 11 12 13 14 15 16 17 18 19 20 21 22 23 24 25 26 27 28 29 30 31 32 33 34 35 36 37 38 39 40 41 42 43 44 45 46 47 48 49 50
000 ASUS42 KCHS 250810 RWRCHS REGIONAL WEATHER ROUNDUP NATIONAL WEATHER SERVICE CHARLESTON SC 400 AM EDT FRI JUL 25 2014 NOTE: "FAIR" INDICATES FEW OR NO CLOUDS BELOW 12,000 FEET WITH NO SIGNIFICANT WEATHER AND/OR OBSTRUCTIONS TO VISIBILITY. NOT ALL STATIONS ARE QUALITY CONTROLLED BY THE NATIONAL WEATHER SERVICE. USE DATA WITH CAUTION...ESPECIALLY DEWPOINT OBSERVATIONS. SCZ027-030-031-034>040-042>050-250900- ...SOUTH CAROLINA... CITY SKY/WX TMP DP RH WIND PRES REMARKS N CHARLESTON PTCLDY 81 74 79 W9 29.94F WATERFRONT PRK N/A 82 N/A N/A W6G12 N/A FORT JOHNSON NOT AVBL MOUNT PLEASANT FAIR 82 79 89 W7 29.94S HX 93 JOHNS ISLAND SUNNY 82 70 65 CALM 29.95S PINOPOLIS N/A 82 73 74 SW9 29.87F MONCKS CORNER N/A 79 75 89 SW3 29.94S SUMMERVILLE NOT AVBL BEAUFORT MCAS PTCLDY 79 72 79 NW6 29.96S BEAUFORT ARPT FAIR 81 73 78 W9 29.95F HILTON HEAD IS PTCLDY 81 73 78 SW8 29.98R GEORGETOWN NOT AVBL WALTERBORO SUNNY 77 77 100 W5 29.96S ORANGEBURG CLOUDY 77 72 84 W5 29.95F BARNWELL FAIR 75 72 88 W5 29.97S AIKEN FAIR 73 73 100 CALM 30.00S MANNING CLOUDY 79 N/A N/A N5 29.95R KINGSTREE NOT AVBL COLUMBIA PTCLDY 78 71 79 CALM 29.95S SUMTER CLOUDY 75 72 92 NE5 29.94S FLORENCE PTCLDY 74 71 91 N6 29.95S MYRTLE BEACH MOCLDY 75 72 88 N3 29.95S N MYRTLE BEACH CLOUDY 74 71 91 NE6 29.94F $$ GAZ063-065-086>088-099>101-113>116-118-119-134-136>141-150-250900- ...GEORGIA... CITY SKY/WX TMP DP RH WIND PRES REMARKS SAVANNAH ARPT PTCLDY 78 71 79 SW8 29.97F HUNTER AAF PTCLDY 77 73 85 SW7 29.96F FORT STEWART CLEAR 77 73 87 SW3 29.97F STATESBORO NOT AVBL SYLVANIA SUNNY 77 75 93 CALM 29.98F CLAXTON FAIR 79 77 94 CALM 29.97F THOMSON PTCLDY 74 74 100 CALM 30.01S AUGUSTA-BUSH MOCLDY 75 72 90 CALM 29.95F AUGUSTA-DANIEL MOCLDY 78 72 81 CALM 29.97F SWAINSBORO PTSUNNY 79 77 94 CALM 29.99S VIDALIA N/A 77 73 88 SW6 29.99S ALMA CLEAR 75 73 93 CALM 30.00S WAYCROSS CLEAR 78 77 97 CALM 30.00S JESUP NOT AVBL BRUNSWICK CLEAR 79 72 78 CALM 30.00S SAINT SIMONS CLEAR 78 74 87 W6 30.00S $$ SCZ027-028-034-036>038-045-046-048>050-GAZ119-141-250900- ...LAKE AND SUPPLEMENTAL COASTAL OBSERVATIONS... STATION/POSITION TIME TEMP WIND PRES WAVE SWELL AIR SEA DIR/SP/G HT/PER HT/PER/DIR (UTC) (F) (DEG/KT/KT) (MB) (FT/S) (FT/S/D) UPR LAKE MARION NOT AVBL WINYAH BAY 0700 77 220/ 3 1013.0S LAKE MURRAY 0700 77 20/ 1/ 2 1013.9S ACE BASIN NERRS 0700 81 240/ 2 1015.0S FORT PULASKI 0800 79 240/ 5/ 9 1015.1S SAPELO ISLAND 0700 79 260/ 6 1016.0S $$ ANZ835-935-AMZ111-154-330-350-352-354-374-450-454-472-250900- ...C-MAN AND BUOY OBSERVATIONS... STATION/POSITION TIME TEMP WIND PRES WAVE SWELL AIR SEA DIR/SP/G HT/PER HT/PER/DIR (UTC) (F) (DEG/KT/KT) (MB) (FT/S) (FT/S/D) FOLLY BEACH CMAN 0700 82 250/ 5/ 7 1014.6S BUOY 41004 0800 83 83 220/ 16/ 19 1013.1F 5/ 5 2/ 9 BUOY 41008 0800 82 84 260/ 16/ 19 1015.2F 3/ 5 5E ST. MARYS GA 0800 85 N/A 2/ 5 FRYING PAN BUOY NOT AVBL BUOY 41025 0800 VRB 14/ 17 1012.0S 3/ 7 2/160/ 7 CAPE LOOKOUT NC 0700 73 270/ 1/ 2 1013.0F BUOY 41002 0746 82 82 240/ 21/ 25 1016.0F 6/ 6 BUOY 41010 0800 83 83 200/ 14/ 16 1017.1S 3/ 8 2/120/ 8 BUOY 41012 NOT AVBL ST AUGUSTINE FL 0800 78 260/ 5/ 7 1016.8F CAPERS NEARSHORE 0700 84 140/ 14/ 17 N/A FRIPP NEARSHORE NOT AVBL $$

USA.gov is the U.S. government's official web portal to all federal, state and local government web resources and services.